Weather History for Farmville, VA

Change the Weather History Date:

Thursday, May 9, 2013

  Actual Average Record
Temperature  
Mean Temperature 65 °F -  
Max Temperature 80 °F 76 °F 93 °F (1963)
Min Temperature 50 °F 47 °F 27 °F (1947)
Growing Degree Days 15 (Base 50)    
Moisture  
Dew Point 52 °F    
Average Humidity 64    
Maximum Humidity 100    
Minimum Humidity 30    
Precipitation  
Precipitation 0.00 in - - ()
Sea Level Pressure  
Sea Level Pressure 29.99 in    
Wind  
Wind Speed 2 mph (WSW)    
Max Wind Speed 9 mph    
Max Gust Speed -    
Visibility 8 miles    
Events Fog    
Averages and records for this station are not official NWS values.
T = Trace of Precipitation, MM = Missing Value Source: NWS Daily Summary

Daily Weather History Graph

Daily Weather History Graph

Search for Another Location

Airport:

Trip Planner

Search our weather history database for the weather conditions in past years. The results will help you decide how hot, cold, wet, or windy it might be!

Date:

Astronomy

May. 09, 2013 Rise Set
Actual Time 6:10 AM EDT 8:10 PM EDT
Civil Twilight 5:41 AM EDT 8:39 PM EDT
Nautical Twilight 5:06 AM EDT 9:14 PM EDT
Astronomical Twilight 4:28 AM EDT 9:52 PM EDT
Moon 5:52 AM EDT (5/9) 8:04 PM EDT (5/9)
Length of Visible Light 14h 58m
Length of Day
14h 00m
Waning Crescent, 0% of the Moon is Illuminated
May 9
Waning Crescent
May 9
New
May 18
First Quarter
May 25
Full
May 31
Last Quarter

Hourly Weather History & Observations

Time (EDT) Temp. Dew Point Humidity Pressure Visibility Wind Dir Wind Speed Gust Speed Precip Events Conditions
12:15 AM 53.6 °F 53.6 °F 100% 29.98 in 0.2 mi Calm Calm - N/A Fog Fog
12:55 AM 53.6 °F 53.6 °F 100% 29.97 in 0.2 mi SW 3.5 mph - N/A Fog Fog
2:15 AM 53.6 °F 51.8 °F 94% 29.96 in 0.2 mi Calm Calm - N/A Fog Fog
3:35 AM 53.6 °F 51.8 °F 94% 29.95 in 0.2 mi Calm Calm - N/A Fog Fog
4:15 AM 51.8 °F 51.8 °F 100% 29.95 in 0.2 mi SSW 3.5 mph - N/A Fog Fog
4:35 AM 51.8 °F 51.8 °F 100% 29.95 in 0.2 mi Calm Calm - N/A Fog Fog
4:55 AM 51.8 °F 50.0 °F 94% 29.95 in 0.2 mi Calm Calm - N/A Fog Fog
5:15 AM 51.8 °F 50.0 °F 94% 29.95 in 0.2 mi Calm Calm - N/A Fog Fog
6:15 AM 50.0 °F 48.2 °F 94% 29.96 in 0.2 mi Calm Calm - N/A Fog Fog
7:15 AM 51.8 °F 48.2 °F 88% 29.99 in 0.2 mi Calm Calm - N/A Fog Fog
7:35 AM 51.8 °F 51.8 °F 100% 29.99 in 10.0 mi SW 5.8 mph - N/A   Scattered Clouds
7:55 AM 53.6 °F 51.8 °F 94% 30.00 in 10.0 mi SW 4.6 mph - N/A   Clear
8:55 AM 60.8 °F 57.2 °F 88% 30.01 in 10.0 mi WSW 5.8 mph - N/A   Clear
9:15 AM 64.4 °F 59.0 °F 83% 30.00 in 10.0 mi SW 6.9 mph - N/A   Mostly Cloudy
10:15 AM 62.6 °F 59.0 °F 88% 30.01 in 10.0 mi SW 3.5 mph - N/A   Overcast
10:35 AM 64.4 °F 59.0 °F 83% 30.01 in 10.0 mi WSW 3.5 mph - N/A   Overcast
10:55 AM 64.4 °F 59.0 °F 83% 30.01 in 10.0 mi SSW 6.9 mph - N/A   Overcast
11:35 AM 68.0 °F 60.8 °F 78% 30.01 in 10.0 mi WSW 3.5 mph - N/A   Mostly Cloudy
11:55 AM 69.8 °F 59.0 °F 68% 30.01 in 10.0 mi SW 3.5 mph - N/A   Overcast
12:15 PM 69.8 °F 57.2 °F 64% 30.01 in 10.0 mi WSW 5.8 mph - N/A   Mostly Cloudy
12:35 PM 73.4 °F 55.4 °F 53% 30.01 in 10.0 mi WSW 4.6 mph - N/A   Scattered Clouds
1:15 PM 75.2 °F 51.8 °F 44% 30.01 in 10.0 mi WNW 6.9 mph - N/A   Clear
1:35 PM 75.2 °F 51.8 °F 44% 30.00 in 10.0 mi West 3.5 mph - N/A   Scattered Clouds
1:55 PM 77.0 °F 53.6 °F 44% 30.00 in 10.0 mi WSW 9.2 mph - N/A   Scattered Clouds
2:15 PM 77.0 °F 51.8 °F 41% 29.99 in 10.0 mi WSW 5.8 mph - N/A   Scattered Clouds
2:35 PM 77.0 °F 50.0 °F 39% 29.99 in 10.0 mi Calm Calm - N/A   Mostly Cloudy
2:55 PM 77.0 °F 48.2 °F 36% 29.99 in 10.0 mi WNW 5.8 mph - N/A   Overcast
3:35 PM 78.8 °F 50.0 °F 36% 29.98 in 10.0 mi Calm Calm - N/A   Scattered Clouds
4:15 PM 80.6 °F 48.2 °F 32% 29.97 in 10.0 mi WSW 4.6 mph - N/A   Scattered Clouds
4:35 PM 80.6 °F 46.4 °F 30% 29.96 in 10.0 mi WNW 3.5 mph - N/A   Scattered Clouds
4:55 PM 78.8 °F 48.2 °F 34% 29.96 in 10.0 mi Calm Calm - N/A   Mostly Cloudy
5:15 PM 80.6 °F 48.2 °F 32% 29.96 in 10.0 mi NE 3.5 mph - N/A   Mostly Cloudy
5:35 PM 80.6 °F 46.4 °F 30% 29.96 in 10.0 mi SSW 3.5 mph - N/A   Mostly Cloudy
5:55 PM 80.6 °F 46.4 °F 30% 29.96 in 10.0 mi WSW 3.5 mph - N/A   Scattered Clouds
6:15 PM 80.6 °F 46.4 °F 30% 29.96 in 10.0 mi SW 4.6 mph - N/A   Clear
6:35 PM 78.8 °F 46.4 °F 32% 29.96 in 10.0 mi SSW 4.6 mph - N/A   Clear
6:55 PM 78.8 °F 51.8 °F 39% 29.96 in 10.0 mi SSW 3.5 mph - N/A   Clear
7:15 PM 77.0 °F 50.0 °F 39% 29.97 in 10.0 mi SSW 3.5 mph - N/A   Clear
7:35 PM 75.2 °F 50.0 °F 41% 29.97 in 10.0 mi Calm Calm - N/A   Clear
7:55 PM 73.4 °F 51.8 °F 47% 29.98 in 10.0 mi Calm Calm - N/A   Clear
8:15 PM 71.6 °F 51.8 °F 50% 29.98 in 10.0 mi Calm Calm - N/A   Clear
8:35 PM 71.6 °F 51.8 °F 50% 29.99 in 10.0 mi Calm Calm - N/A   Clear
8:55 PM 69.8 °F 51.8 °F 53% 30.00 in 10.0 mi Calm Calm - N/A   Clear
9:15 PM 66.2 °F 53.6 °F 64% 30.00 in 10.0 mi Calm Calm - N/A   Scattered Clouds
9:35 PM 68.0 °F 53.6 °F 60% 30.01 in 10.0 mi Calm Calm - N/A   Clear
9:55 PM 64.4 °F 53.6 °F 68% 30.02 in 10.0 mi Calm Calm - N/A   Scattered Clouds
10:15 PM 64.4 °F 55.4 °F 73% 30.02 in 10.0 mi Calm Calm - N/A   Mostly Cloudy
10:35 PM 64.4 °F 57.2 °F 77% 30.01 in 10.0 mi Calm Calm - N/A   Scattered Clouds
10:55 PM 64.4 °F 55.4 °F 73% 30.01 in 10.0 mi Calm Calm - N/A   Mostly Cloudy
11:15 PM 64.4 °F 55.4 °F 73% 30.01 in 10.0 mi Calm Calm - N/A   Overcast
11:55 PM 66.2 °F 55.4 °F 68% 30.02 in 10.0 mi Calm Calm - N/A   Mostly Cloudy